weather.gov     
National Weather Service

Terminal Aerodrome Forecast
NWS Homepage
This page is being discontinued on March 12, 2014.
The same data is available at this site. Please update your bookmarks.
Thank you, and we apologize for the inconvenience.
Please send an email to SR-SRH.Webmaster@noaa.gov with any concerns.


Current Version
Previous Version:    01  02  03  04  05  06  07  08  09  10  11  12  13  14  15  16  17  18  19  20  21  22  23  24  25  26  27  28  29  
[Printable]
458
FTUS43 KICT 281125
TAFHUT
TAF
KHUT 281125Z 2812/2912 18012KT P6SM FEW250
     FM281600 19015G22KT P6SM SCT250
     FM290000 19009KT P6SM FEW250=




458
FTUS43 KICT 281125
TAFHUT
TAF
KHUT 281125Z 2812/2912 18012KT P6SM FEW250
     FM281600 19015G22KT P6SM SCT250
     FM290000 19009KT P6SM FEW250=


U.S. Dept. of Commerce
NOAA National Weather Service
1325 East West Highway
Silver Spring, MD 20910
E-mail: w-nws.webmaster@noaa.gov
Page last modified: May 16, 2007
NATIONAL WEATHER SERVICE: for Safety, for Work, for Fun - FOR LIFE